OPS 4682 DEB, 38394

Orbit data source: Space-Track

OPS 4682 DEB, 38394 is space debris in LEO originally from a launch on Sat, 03 Apr 1965 UTC launched from the Air Force Western Test Range (AFWTR). Debris objects in space refer to the collection of defunct objects orbiting the Earth. Examples of debris include non-operational satellites, rocket bodies, and fragments generated from explosions, collisions, or faulty payload assembly.

Loading next visibility...
Identifier
38394, 1965-027CX
Orbit
LEO
Country
Flag of USUS
Related business
Manufacturer
Unknown
Mission
Spacecraft
Bus & Motor
Unknown
Mass
Unknown
Launch date (UTC)
1965-04-03 (61 years ago)
Launch vehicle
Unknown
Launch site
Air Force Western Test Range (AFWTR)
Object type
Payload
Rocket body
Debris
Shape & HBR
Unknown shape, 0.1 m
Radar Cross Section
Small (<0.1 m²)

Expand to show TLE details & history
Last TLE update: 13 hours ago

TLE from 13 hours ago
0 OPS 4682 DEB
1 38394U 65027CX  25303.66341304  .00001201  00000-0  39612-2 0  9994
2 38394  90.2653  18.6746 0034709 231.6496 128.1506 12.99915078 34898
Epoch: 2025-10-30T15:55Z
TLE epoch observation values (Epoch: 2025-10-30T15:55:18.886Z)
Latitude
0.00002°
Longitude
100.62694°
Altitude
1,281.745 km
Speed
7.207 km/s
True Right ascension
01h 14m 41s
True Declination
0° 00' 00"
Sunlit
Object was in full shadow at epoch
Visualization orbit readout
Latitude
Unknown
Longitude
Unknown
Altitude
Unknown
Speed
Unknown
Apparent Right ascension
Unknown
Apparent Declination
Unknown
Sunlit
N/A
Visualization observer readout
Local Sidereal Time
00:57:40
Azimuth
Unknown
Elevation
Unknown
Doppler factor
Unknown
Orbital elements
Apogee altitude
1,286.056 km
Perigee altitude
1,233.037 km
Semi-major axis
7,637.683 km
Eccentricity
0.00347
Inclination
90.2653°
RAAN
18.6746°
Arg. of periapsis
231.6496°
True anomaly
128.46254°
Mean anomaly
128.1506°
Eccentric anomaly
128.30665°
Mean motion
3.25163 °/min
Orbital period
110.71 mins
BSTAR
0.0039612
Loading maneuver chart data...
Computing Atmospheric mass density...
Loading historical data...
Loading historical data...
Loading historical data...
Loading historical data...
Loading historical data...
Loading historical data...
Loading historical data...

Documentation

Showing up to 5 results
|